Location: Springfield
(37.2150°N, 93.2980°W)
Time: 04:28:07
(UTC-05:00)

Cosmos 1825 - Pass Details

Date: 19 April 2018
Orbit: 504 x 511 km, 82.5° (Epoch: 20 September)

Event Time Altitude Azimuth Distance (km) Brightness Sun altitude
Rises 21:56:50 0° 352° (N) 2,625 6.4 -23.2°
Reaches altitude 10° 21:58:58 10° 352° (N) 1,733 5.4 -23.5°
Enters shadow 22:02:08 60° 343° (NNW) 587 2.6 -24.0°
